Weather reports worldwide

Advertisment
Chania/Souda, Greece (16746): temperature & dewpoint: 11.07.2018 01:00:00 - 17.07.2018 01:00:00 (EEST)Chania/Souda, Greece (16746): wind speed: 11.07.2018 01:00:00 - 17.07.2018 01:00:00 (EEST)Chania/Souda, Greece (16746): wind direction: 11.07.2018 01:00:00 - 17.07.2018 01:00:00 (EEST)Chania/Souda, Greece (16746): reduced air pressure: 11.07.2018 01:00:00 - 17.07.2018 01:00:00 (EEST)Chania/Souda, Greece (16746): visibility: 11.07.2018 01:00:00 - 17.07.2018 01:00:00 (EEST)
Date & Time tt [°C] td [°C] ff [km/h] ff [kn] dd ppp [hPa] vv [km]
17.07.2018 01:00:00 25,0 20,0 0 0 N - 10
17.07.2018 00:00:00 25,4 19,6 0 0 N 1010,7 10
16.07.2018 23:00:00 26,0 21,0 8 4 WNW - 10
16.07.2018 22:00:00 26,0 21,0 8 4 WNW - 10
16.07.2018 21:00:00 27,2 20,6 15 8 W 1010,6 10
16.07.2018 20:00:00 30,0 21,0 11 6 W - 10
16.07.2018 19:00:00 32,0 20,0 11 6 WNW - 10
16.07.2018 18:00:00 32,2 17,7 8 4 WSW 1010,3 10
16.07.2018 17:00:00 34,0 17,0 9 5 NNE - 10
16.07.2018 16:00:00 33,0 17,0 11 6 NNE - 10
16.07.2018 15:00:00 33,6 17,2 11 6 ENE 1010,7 10
16.07.2018 14:00:00 33,0 17,0 18 10 ENE - 10
16.07.2018 13:00:00 33,0 17,0 15 8 ENE - 10
16.07.2018 12:00:00 31,4 17,4 15 8 ENE 1010,3 10
16.07.2018 11:00:00 31,0 16,0 11 6 NNE - 10
16.07.2018 10:00:00 30,0 15,0 11 6 N - 10
16.07.2018 09:00:00 27,6 17,2 0 0 N 1009,9 10
16.07.2018 08:00:00 26,0 19,0 0 0 N - 10
16.07.2018 07:00:00 23,0 20,0 0 0 N - 10
16.07.2018 06:00:00 22,4 20,2 0 0 N 1009,9 10
16.07.2018 05:00:00 23,0 21,0 9 5 NW - 10
16.07.2018 04:00:00 23,0 21,0 9 5 WNW - 10
16.07.2018 03:00:00 23,0 21,5 0 0 N 1010,5 10
16.07.2018 02:00:00 24,0 22,0 9 5 WNW - 10
16.07.2018 01:00:00 24,0 22,0 9 5 W - 10
16.07.2018 00:00:00 24,8 20,9 0 0 N 1010,6 10
15.07.2018 23:00:00 25,0 20,0 0 0 N - 10
15.07.2018 22:00:00 26,0 20,0 0 0 N - 10
15.07.2018 21:00:00 27,8 17,4 0 0 N 1009,9 10
15.07.2018 20:00:00 29,0 15,0 0 0 N - 10
15.07.2018 19:00:00 30,0 16,0 9 5 NNE - 10
15.07.2018 18:00:00 31,2 18,6 11 6 NNE 1010,0 10
15.07.2018 17:00:00 31,0 18,0 16 9 NNE - 10
15.07.2018 16:00:00 31,0 18,0 13 7 NW - 10
15.07.2018 15:00:00 31,0 16,5 15 8 NNE 1010,6 10
15.07.2018 14:00:00 31,0 18,0 13 7 NNE - 10
15.07.2018 13:00:00 30,0 18,0 15 8 N - 10
15.07.2018 12:00:00 30,0 18,6 18 10 N 1010,3 10
15.07.2018 11:00:00 29,0 19,0 18 10 N - 10
15.07.2018 10:00:00 29,0 18,0 13 7 N - 10
15.07.2018 09:00:00 28,0 19,8 11 6 NNW 1009,9 10
15.07.2018 08:00:00 26,0 20,0 13 7 NW - 10
15.07.2018 07:00:00 23,0 21,0 9 5 NW - 10
15.07.2018 06:00:00 23,4 21,0 8 4 NW 1009,9 10
15.07.2018 05:00:00 23,0 21,0 9 5 NW - 10
15.07.2018 04:00:00 24,0 21,0 9 5 NW - 10
15.07.2018 03:00:00 23,8 20,8 11 6 WNW 1010,3 10
15.07.2018 02:00:00 24,0 21,0 13 7 WNW - 10
15.07.2018 01:00:00 - - - - - - -
15.07.2018 00:00:00 25,2 20,0 9 5 NW 1010,6 10
14.07.2018 23:00:00 25,0 20,0 11 6 W - 10
14.07.2018 22:00:00 26,0 20,0 9 5 WNW - 10
14.07.2018 21:00:00 27,0 19,3 11 6 WNW 1010,0 10
14.07.2018 20:00:00 29,0 19,0 13 7 NNW - 10
14.07.2018 19:00:00 30,0 19,0 13 7 NNW - 10
14.07.2018 18:00:00 31,0 18,8 22 12 N 1009,4 10
14.07.2018 17:00:00 32,0 19,0 24 13 N - 10
14.07.2018 16:00:00 32,0 20,0 18 10 NNW - 10
14.07.2018 15:00:00 32,6 19,7 21 11 NNW 1010,2 10
14.07.2018 14:00:00 32,0 21,0 18 10 N - 10
14.07.2018 13:00:00 32,0 21,0 16 9 N - 10
14.07.2018 12:00:00 31,0 20,9 15 8 N 1010,3 10
14.07.2018 11:00:00 31,0 21,0 15 8 NNW - 10
14.07.2018 10:00:00 30,0 20,0 16 9 N - 10
14.07.2018 09:00:00 28,8 20,4 9 5 NW 1009,9 10
14.07.2018 08:00:00 26,0 19,0 8 4 NW - 10
14.07.2018 07:00:00 24,0 19,0 8 4 WNW - 10
14.07.2018 06:00:00 23,4 18,0 0 0 N 1009,8 10
14.07.2018 05:00:00 24,0 19,0 0 0 N - 10
14.07.2018 04:00:00 24,0 20,0 0 0 N - 10
14.07.2018 03:00:00 24,0 21,3 0 0 N 1010,3 10
14.07.2018 02:00:00 24,0 21,0 8 4 W - 10
14.07.2018 01:00:00 25,0 22,0 9 5 WNW - 10
14.07.2018 00:00:00 25,2 22,2 9 5 NW 1010,6 10
13.07.2018 23:00:00 26,0 22,0 8 4 WNW - 10
13.07.2018 22:00:00 26,0 22,0 11 6 WNW - 10
13.07.2018 21:00:00 27,0 21,3 13 7 WNW 1010,2 10
13.07.2018 20:00:00 30,0 22,0 9 5 NNW - 10
13.07.2018 19:00:00 31,0 22,0 9 5 NNW - 10
13.07.2018 18:00:00 31,8 21,9 13 7 NW 1010,3 10
13.07.2018 17:00:00 32,0 21,0 15 8 NNW - 10
13.07.2018 16:00:00 32,0 22,0 15 8 NW - 10
13.07.2018 15:00:00 33,0 21,3 15 8 NW 1011,0 10
13.07.2018 14:00:00 32,0 20,0 15 8 N - 10
13.07.2018 13:00:00 32,0 19,0 18 10 N - 10
13.07.2018 12:00:00 31,4 19,3 18 10 N 1011,4 10
13.07.2018 11:00:00 31,0 21,0 15 8 NNW - 10
13.07.2018 10:00:00 31,0 21,0 11 6 NNW - 10
13.07.2018 09:00:00 29,2 19,5 11 6 N 1010,9 10
13.07.2018 08:00:00 26,0 18,0 0 0 N - 10
13.07.2018 07:00:00 23,0 17,0 0 0 N - 10
13.07.2018 06:00:00 22,6 17,1 8 4 W 1010,9 10
13.07.2018 05:00:00 23,0 19,0 8 4 W - 10
13.07.2018 04:00:00 23,0 19,0 11 6 WNW - 10
13.07.2018 03:00:00 23,0 18,9 8 4 WNW 1011,1 10
13.07.2018 02:00:00 24,0 22,0 11 6 NW - 10
13.07.2018 01:00:00 24,0 22,0 11 6 NNW - 10
13.07.2018 00:00:00 23,8 21,7 11 6 WNW 1012,0 10
12.07.2018 23:00:00 24,0 22,0 11 6 WNW - 10
12.07.2018 22:00:00 25,0 22,0 11 6 WNW - 10
12.07.2018 21:00:00 25,6 22,7 15 8 WNW 1011,5 10
12.07.2018 20:00:00 28,0 21,0 15 8 WNW - 10
12.07.2018 19:00:00 29,0 23,0 15 8 WNW - 10
12.07.2018 18:00:00 30,8 23,3 18 10 W 1011,1 10
12.07.2018 17:00:00 31,0 23,0 18 10 WNW - 10
12.07.2018 16:00:00 31,0 22,0 18 10 WNW - 10
12.07.2018 15:00:00 30,0 19,4 22 12 WNW 1011,9 10
12.07.2018 14:00:00 31,0 20,0 22 12 WNW - 10
12.07.2018 13:00:00 31,0 19,0 22 12 NW - 10
12.07.2018 12:00:00 29,0 21,6 18 10 NW 1012,0 10
12.07.2018 11:00:00 29,0 21,0 18 10 W - 10
12.07.2018 10:00:00 28,0 21,0 18 10 WNW - 10
12.07.2018 09:00:00 26,6 18,9 18 10 NW 1011,5 10
12.07.2018 08:00:00 24,0 19,0 11 6 NW - 10
12.07.2018 07:00:00 21,0 19,0 8 4 WNW - 10
12.07.2018 06:00:00 21,2 19,6 8 4 WNW 1011,4 10
12.07.2018 05:00:00 22,0 19,0 15 8 NW - 10
12.07.2018 04:00:00 21,0 19,0 9 5 WNW - 10
12.07.2018 03:00:00 21,6 19,7 9 5 NW 1011,8 10
12.07.2018 02:00:00 22,0 20,0 13 7 NNW - 10
12.07.2018 01:00:00 22,0 19,0 15 8 WNW - 10
12.07.2018 00:00:00 22,4 19,3 15 8 WNW 1012,5 10
11.07.2018 23:00:00 23,0 20,0 16 9 WNW - 10
11.07.2018 22:00:00 24,0 21,0 15 8 WNW - 10
11.07.2018 21:00:00 24,8 20,9 15 8 NW 1011,4 10
11.07.2018 20:00:00 27,0 21,0 18 10 NW - 10
11.07.2018 19:00:00 28,0 22,0 18 10 WNW - 10
11.07.2018 18:00:00 29,0 22,9 18 10 WNW 1010,9 10
11.07.2018 17:00:00 30,0 22,0 22 12 WNW - 10
11.07.2018 16:00:00 31,0 21,0 18 10 WNW - 10
11.07.2018 15:00:00 31,0 21,3 18 10 WNW 1011,1 10
11.07.2018 14:00:00 31,0 21,0 15 8 W - 10
11.07.2018 13:00:00 30,0 20,0 16 9 NW - 10
11.07.2018 12:00:00 29,8 21,2 9 5 NW 1011,4 10
11.07.2018 11:00:00 28,0 21,0 11 6 NW - 10
11.07.2018 10:00:00 27,0 21,0 13 7 W - 10
11.07.2018 09:00:00 25,6 19,4 8 4 NNW 1011,3 10
11.07.2018 08:00:00 23,0 18,0 8 4 NW - 10
11.07.2018 07:00:00 20,0 18,0 5 3 NW - 10
11.07.2018 06:00:00 20,0 18,4 9 5 NW 1010,7 10
11.07.2018 05:00:00 20,0 18,0 9 5 WNW - 10
11.07.2018 04:00:00 20,0 18,0 11 6 NW - 10
11.07.2018 03:00:00 21,4 18,5 15 8 WNW 1010,9 10
11.07.2018 02:00:00 22,0 18,0 15 8 WNW - 10
11.07.2018 01:00:00 22,0 19,0 18 10 WNW - 10

tt = temperature
td = dewpoint
ff = wind speed
dd = wind direction
ppp = reduced air pressure
vv = visibility

Next stations